Погода в Дурбане

ЮАР     29°48′49″S   30°55′35″E
темп.,
°C
ветер,
м/с
пор.,
м/с
влажн.,
%
обл.,
%
осадки,
мм/ч
давл.,
гПа
погр.,
м
23 января, сб
сб2323:00+23ссв48890 0.0 1013351
02:00+21ссв23910 0.0 1011148
05:00+21с239119 0.0 1010119
08:00+25св33779 0.0 1009331
11:00+28св67690 0.0 1008476
14:00+29св710670 0.0 1006500
17:00+28св59690 0.0 1005426
20:00+24ссв25870 0.0 1007140
24 января, вс
вс2423:00+24зсз12850 0.0 100827
02:00+23зсз22740 0.0 100724
05:00+24зюз398129 0.0 1009391
08:00+27ююз7117433 0.0 1012972
11:00+26ююз91377100 0.1 1013977
14:00+24ююз10147298 0.8 10131022
17:00+23ю8128089 0.1 1015962
20:00+22ю6118995 2.3 1018799
25 января, пн
пн2523:00+20юз51087100 1.6 1019608
02:00+20юз51088100 2.2 1017542
05:00+20зюз2492100 4.5 1017227
08:00+21ю2594100 10.4 1018342
11:00+21ю4591100 3.8 1017433
14:00+22юз5790100 9.8 1015469
17:00+22зюз3688100 1.4 1013266
20:00+22сз128692 1.4 101553
26 января, вт
вт2623:00+21с238979 0.0 1015123
02:00+21с238687 0.0 101387
05:00+22с348323 0.0 101394
08:00+26ссв477217 0.0 1013374
11:00+31св786292 0.0 1012788
14:00+31св10126395 0.0 1010653
17:00+28св7137537 0.0 1009567
20:00+27св6127756 0.2 1011405
27 января, ср
ср2723:00+25сз1587100 1.5 1013160
02:00+24юз2493100 2.4 1012149
05:00+24ссз2290100 0.0 101162
08:00+26с238283 0.1 1011266
11:00+31св686312 0.0 1009799
14:00+31всв913618 0.0 1006593
17:00+29св10177122 0.0 1005579
20:00+27св8167652 0.0 1007622